Weather History for KPPF - December, 2012

Change the Weather History Date:

Sunday, December 30, 2012

  Actual Average Record
Temperature  
Mean Temperature 32 °F -  
Max Temperature 44 °F 40 °F 71 °F (2004)
Min Temperature 19 °F 22 °F -12 °F (1983)
Degree Days  
Heating Degree Days 34    
Moisture  
Dew Point 19 °F    
Average Humidity 59    
Maximum Humidity 75    
Minimum Humidity 37    
Precipitation  
Precipitation 0.00 in - - ()
Sea Level Pressure  
Sea Level Pressure 30.32 in    
Wind  
Wind Speed 6 mph (South)    
Max Wind Speed 16 mph    
Max Gust Speed 25 mph    
Visibility 10 miles    
Events      
Averages and records for this station are not official NWS values.
T = Trace of Precipitation, MM = Missing Value Source: NWS Daily Summary

Daily Weather History Graph

Daily Weather History Graph

Search for Another Location

Airport or City:

Trip Planner

Search our weather history database for the weather conditions in past years. The results will help you decide how hot, cold, wet, or windy it might be!

Date:

Astronomy

Dec. 30, 2012 Rise Set
Actual Time 7:35 AM CST 5:13 PM CST
Civil Twilight 7:06 AM CST 5:43 PM CST
Nautical Twilight 6:34 AM CST 6:15 PM CST
Astronomical Twilight 6:02 AM CST 6:47 PM CST
Moon 7:42 PM CST (12/30) 8:48 AM CST (12/30)
Length of Visible Light 10h 36m
Length of Day
9h 37m
Waning Gibbous, 95% of the Moon is Illuminated
Dec 30
Waning Gibbous
Jan 4
Last Quarter
Jan 11
New
Jan 18
First Quarter
Jan 26
Full

Hourly Weather History & Observations

Time (CST) Temp. Windchill Dew Point Humidity Pressure Visibility Wind Dir Wind Speed Gust Speed Precip Events Conditions
12:52 AM 19.0 °F - 12.0 °F 74% 30.41 in 10.0 mi North - - N/A   Clear
1:52 AM 21.9 °F 17.2 °F 14.0 °F 72% 30.38 in 10.0 mi South 3.5 mph - N/A   Clear
2:52 AM 23.0 °F - 15.1 °F 72% 30.40 in 10.0 mi Calm Calm - N/A   Clear
3:52 AM 21.9 °F 17.2 °F 15.1 °F 75% 30.41 in 10.0 mi South 3.5 mph - N/A   Clear
4:52 AM 21.9 °F - 15.1 °F 75% 30.40 in 10.0 mi North - - N/A   Clear
6:52 AM 24.1 °F 18.2 °F 17.1 °F 75% 30.39 in 10.0 mi South 4.6 mph - N/A   Clear
7:52 AM 24.1 °F 19.7 °F 17.1 °F 75% 30.40 in 10.0 mi South 3.5 mph - N/A   Clear
8:52 AM 27.0 °F 18.7 °F 19.9 °F 75% 30.41 in 10.0 mi South 8.1 mph - N/A   Clear
9:52 AM 30.9 °F 22.2 °F 21.9 °F 69% 30.41 in 10.0 mi South 10.4 mph - N/A   Clear
10:52 AM 37.0 °F 28.9 °F 24.1 °F 59% 30.39 in 10.0 mi South 12.7 mph - N/A   Clear
11:52 AM 39.9 °F 32.1 °F 24.1 °F 53% 30.35 in 10.0 mi SSW 13.8 mph - N/A   Clear
12:52 PM 44.1 °F 36.8 °F 21.0 °F 40% 30.31 in 10.0 mi SSW 16.1 mph 25.3 mph N/A   Clear
1:52 PM 44.1 °F 37.1 °F 19.0 °F 37% 30.29 in 10.0 mi South 15.0 mph 20.7 mph N/A   Clear
2:52 PM 43.0 °F 36.4 °F 19.0 °F 38% 30.27 in 10.0 mi South 12.7 mph 20.7 mph N/A   Clear
3:52 PM 42.1 °F 37.7 °F 19.9 °F 41% 30.27 in 10.0 mi South 6.9 mph - N/A   Clear
4:52 PM 41.0 °F 34.7 °F 19.9 °F 43% 30.25 in 10.0 mi South 10.4 mph - N/A   Clear
5:52 PM 39.0 °F - 19.9 °F 46% 30.24 in 10.0 mi North - - N/A   Clear
6:52 PM 37.0 °F 31.6 °F 21.9 °F 54% 30.24 in 10.0 mi South 6.9 mph - N/A   Clear
7:52 PM 37.0 °F 30.4 °F 21.9 °F 54% 30.23 in 10.0 mi South 9.2 mph - N/A   Clear
8:52 PM 37.0 °F 31.6 °F 21.0 °F 52% 30.23 in 10.0 mi South 6.9 mph - N/A   Clear
9:52 PM 36.0 °F 31.1 °F 21.0 °F 55% 30.21 in 10.0 mi South 5.8 mph - N/A   Clear
10:52 PM 35.1 °F 31.0 °F 21.9 °F 59% 30.23 in 10.0 mi South 4.6 mph - N/A   Clear
11:52 PM 35.1 °F 32.2 °F 21.0 °F 57% 30.23 in 10.0 mi South 3.5 mph - N/A   Clear